Regional Weather Roundup
Issued by NWS

Home | Current Version | Previous Version | Text Only | Print | Product List | Glossary Off
Versions: 1 2 3 4 5 6 7 8 9 10 11 12 13 14 15 16 17 18 19 20 21 22 23 24 25 26 27 28 29 30 31 32 33 34 35 36 37 38 39 40 41 42 43 44 45 46 47 48 49 50

000
ASUS43 KFSD 271102
RWRSD

WEATHER ROUNDUP FOR SOUTH DAKOTA
NATIONAL WEATHER SERVICE SIOUX FALLS SD
600 AM CDT WED AUG 27 2014

NOTE: "FAIR" INDICATES FEW OR NO CLOUDS BELOW 12,000 FEET WITH NO
SIGNIFICANT WEATHER AND/OR OBSTRUCTIONS TO VISIBILITY.


SDZ001>005-009-010-012>017-271200-
NORTHWEST AND NORTH CENTRAL SOUTH DAKOTA

CITY           SKY/WX    TMP DP  RH WIND       PRES   REMARKS
BUFFALO          N/A     52  50  93 SE5       30.09S
FAITH            N/A     50  49  96 E5        30.14F
MOBRIDGE       CLEAR     54  52  93 E6        30.13S
$$

SDZ012>016-024>037-041>051-057-063-072>074-271200-
SOUTHWEST AND SOUTH CENTRAL SOUTH DAKOTA

CITY           SKY/WX    TMP DP  RH WIND       PRES   REMARKS
RAPID CTY ARPT MOCLDY    58  54  86 NW3       30.13F
PIERRE         CLOUDY    61  57  87 E7        30.10S
CUSTER         MOCLDY    57  52  83 NE5       30.22S
ELLSWORTH AFB  CLOUDY    59  54  84 N3        30.12F
PHILIP         PTCLDY    55  53  93 NE5       30.10F
PINE RIDGE     FOG       57  57 100 MISG      30.13R VSB 1/2
WINNER         CLOUDY    67  65  93 S9        30.10F
$$

SDZ004>011-016>023-039-040-271200-
NORTHEAST SOUTH DAKOTA

CITY           SKY/WX    TMP DP  RH WIND       PRES   REMARKS
ABERDEEN       CLEAR     54  54 100 NE3       30.16S
WATERTOWN      MOCLDY    56  52  86 SE5       30.17S
SISSETON         N/A     54  54 100 CALM      30.17F
$$

SDZ017-020-022-023-036>040-048>070-271200-
SOUTHEAST SOUTH DAKOTA

CITY           SKY/WX    TMP DP  RH WIND       PRES   REMARKS
SIOUX FALLS    CLOUDY    60  56  86 E5        30.14F
HURON          CLOUDY    60  57  89 E3        30.14S
CHAMBERLAIN    CLOUDY    61  60  95 SE7       30.10F
MITCHELL       CLOUDY    58  57  97 NE6       30.14F
YANKTON        PTCLDY    59  57  94 NE6       30.12F
$$

ABBREVIATIONS USED IN REMARKS
   TC - TEMPERATURE IN CELSIUS
  WCI - WIND CHILL INDEX
   HX - HEAT INDEX
  VSB - VISIBILITY




USA.gov is the U.S. government's official web portal to all federal, state and local government web resources and services.